FENGYUN 1C DEB

Satellite information

Favourite Embed

Satellite Type and Status

DEBRISIN ORBIT

Key statistics

Satellite FENGYUN 1C DEB at a glance.

Uptime

9494

Days in orbit

Revolutions

≈ 14.6

Per day

Orbit

SSO

Sun Synchronous Orbit

Inclination

98.8

Latest

Satellite identification and parameters

Extended collection of information and parameters for FENGYUN 1C DEB.

Object identification

Identified? True

Debris? True

Object name: FENGYUN 1C DEB

International designator: 1999-025EA

Object number (NORAD): 29832

Object ID (CCSDS): 29832

Country: PEOPLES REPUBLIC OF CHINA (PRC)

Current information (Y/N): Y

RCS size: SMALL

Orbital parameters

Period: 98.897 minutes

Inclination: 98.8062 deg

SMA: 7084.066 km

Apoapsis: 843.203 km

Periapsis: 568.66 km

RAAN: 225.4096 deg

Eccentricy: 0.0193775

Argument of periapsis: 234.1588 deg

Mean anomaly: 124.1474 deg

Mean motion: 14.56058604 rev/day

Mean motion (dot): 0.0000116 rev/day2

B* drag term: 0.00021575 1/REarth

Two-line elements (TLE)

Creation date: May 7, 2025, 3:14 a.m.

Reference frame: TEME

Reference center: EARTH

Epoch: May 6, 2025, 12:24 p.m. UTC

TLE line 0: 0 FENGYUN 1C DEB

TLE line 1: 1 29832U 99025EA 25126.51726000 .00001160 00000-0 21575-3 0 9997

TLE line 2: 2 29832 98.8062 225.4096 0193775 234.1588 124.1474 14.56058604970503

Live tracking on map

Real-time ground track for satellite FENGYUN 1C DEB.

In-orbit conjunctions

A list of the most updated potential collisions computed for object FENGYUN 1C DEB.

Target Orbit TCA Probability of collision Miss distance Type
ADEOS 2 SSO 2025-03-04 18:16:48 0.0001171082 670.0 (m) PAYLOAD

Associated space launch

Chinese polar orbiting meteorological satellite

FENGYUN 1C DEB was lifted into orbit during the mission ‘Long March 4B | Feng Yun 1C’, on board a Long March 4B space rocket.

The launch took place on May 10, 1999, 1:33 a.m. from Launch Complex 7.

For more information about the launch, click the button.

Launch to space Long March 4B | Feng Yun 1C
Long March 4B | Feng Yun 1C

Agency: N/A

Status: Launch Successful

Launch date: May 10, 1999, 1:33 a.m. UTC

Rocket: Long March 4B

Launch pad: Launch Complex 7

Location: Taiyuan Satellite Launch Center, People's Republic of China

...

Latest news about this satellite

There are no fresh news available about this satellite. Check back as we update our databases every day.


Newsletter sign-up

Weekly statistics, charts and insights to help you stay on top of the space industry.